Powrót do katalogu

COSMOS 944

AktywnyMilitariaLEO
NORAD 10290·PAYLOAD·🇷🇺 Russia

Wystrzelony Aug 24, 1977 z Plesetsk Cosmodrome

Loading…

Następne Przeloty (najbliższe 24 godziny)

TLE

ŚwieżeSource: Space-Track

Epoka: Sep 14, 2026, 08:33 UTC

1 10290U 77079F   26257.35675066 -.00000021  00000-0 -30852-4 0  9999
2 10290  74.0235 217.8669 0005271  28.8653 138.0496 12.49708596214527

Śledź COSMOS 944 w czasie rzeczywistym z AllMySat

Download on the App Store